Regional Weather Roundup
Issued by NWS

Home | Current Version | Previous Version | Graphics & Text | Print | Product List | Glossary On
Versions: 1 2 3 4 5 6 7 8 9 10 11 12 13 14 15 16 17 18 19 20 21 22 23 24 25 26 27 28 29 30 31 32 33 34 35 36 37 38 39 40 41 42 43 44 45 46 47 48 49 50
000
ASUS43 KOAX 170102
RWRNE

WEATHER ROUNDUP FOR NEBRASKA
NATIONAL WEATHER SERVICE OMAHA NE
700 PM CST SAT DEC 16 2017

NOTES: SATELLITE DATA IS BEING USED TO AUGMENT CLOUD COVER ABOVE
       12000 FEET.
       "FAIR" INDICATES FEW OR NO CLOUDS BELOW 12,000 FEET WITH NO
       SIGNIFICANT WEATHER AND/OR OBSTRUCTIONS TO VISIBILITY.


NEZ001>004-019>022-054>056-170200-
NEBRASKA PANHANDLE

CITY           SKY/WX    TMP DP  RH WIND       PRES   REMARKS
SCOTTSBLUFF    CLOUDY    35  28  75 E13       29.96R WCI  26
ALLIANCE       CLOUDY    33  29  85 NE13      29.95R WCI  24
CHADRON        CLOUDY    33  25  72 NE7       30.00R WCI  27
GORDON         FAIR      32  28  84 NE5       29.98R WCI  28
KIMBALL        CLOUDY    32  28  84 NE10      29.91R WCI  24
SIDNEY         CLOUDY    34  28  79 NE14      29.92R WCI  25
$$

NEZ057>060-069>072-079>082-170200-
SOUTHWEST NEBRASKA

CITY           SKY/WX    TMP DP  RH WIND       PRES   REMARKS
NORTH PLATTE   CLOUDY    36  32  85 NE7       29.93R WCI  30
IMPERIAL       CLOUDY    33  28  81 NE10      29.89R WCI  25
LEXINGTON      CLOUDY    34  28  77 N6        29.91R WCI  29
MCCOOK         CLEAR     38  28  67 NE15      29.87R WCI  29
OGALLALA       CLOUDY    38  32  77 NE12G17   29.93R WCI  31
$$

NEZ005>010-023>029-035>040-094-170200-
NORTH CENTRAL NEBRASKA

CITY           SKY/WX    TMP DP  RH WIND       PRES   REMARKS
VALENTINE      CLOUDY    38  32  79 N7        29.99R WCI  33
AINSWORTH      CLOUDY    37  33  87 N8        29.98R WCI  31
BROKEN BOW     CLOUDY    39  32  76 N10       29.93R WCI  32
O`NEILL        CLOUDY    39  35  85 NE8       29.98R WCI  34
ORD            CLOUDY    33  29  85 N7        29.95R WCI  27
THEDFORD       CLOUDY    37  33  83 NE7       29.97R WCI  32
$$

NEZ041-046>049-061>064-073>077-083>087-170200-
SOUTH CENTRAL NEBRASKA

CITY           SKY/WX    TMP DP  RH WIND       PRES   REMARKS
GRAND ISLAND   CLEAR     33  29  85 NE8       29.94R WCI  26
AURORA         CLEAR     33  27  80 NE9       29.92R WCI  25
HASTINGS       CLEAR     34  26  72 NE9       29.91R WCI  27
HEBRON         CLOUDY    39  23  51 CALM      29.90R
HOLDREGE       CLEAR     37  30  75 NE12      29.88S WCI  30
KEARNEY        CLEAR     32  27  81 NE12      29.92R WCI  23
$$

NEZ011>018-030>034-042>045-170200-
NORTHEAST NEBRASKA

CITY           SKY/WX    TMP DP  RH WIND       PRES   REMARKS
NORFOLK        CLOUDY    36  31  82 NE6       29.94R WCI  31
ALBION         CLOUDY    36  32  85 N3        29.96R
BLAIR          CLEAR     42  30  62 N7        29.94R
COLUMBUS       CLEAR     38  30  73 N10       29.95R WCI  31
FREMONT        CLEAR     40  28  62 N5        29.96R
TEKAMAH        CLEAR     37  25  61 N7        29.96R WCI  32
WAYNE          MOCLDY    32  29  92 CALM      29.96R
$$

NEZ050>053-065>068-078-088>093-170200-
SOUTHEAST NEBRASKA

CITY           SKY/WX    TMP DP  RH WIND       PRES   REMARKS
LINCOLN        CLEAR     38  24  57 NE5       29.95R WCI  34
OMAHA EPPLEY   CLEAR     34  23  64 N6        29.95R WCI  29
BEATRICE       CLOUDY    40  24  51 NE5       29.91R
FALLS CITY     CLOUDY    44  25  47 E5        29.90S
NEBRASKA CITY  CLOUDY    43  25  49 NE5       29.92S
PLATTSMOUTH    CLEAR     44  26  49 CALM      29.94R
$$

NEZ044-045-051>053-067-170200-
OMAHA AREA

CITY           SKY/WX    TMP DP  RH WIND       PRES   REMARKS
OMAHA EPPLEY   CLEAR     34  23  64 N6        29.95R WCI  29
BLAIR          CLEAR     42  30  62 N7        29.94R
FREMONT        CLEAR     40  28  62 N5        29.96R
MILLARD        CLEAR     42  28  57 CALM      29.96R
OFFUTT AFB     CLEAR     34  23  65 S3        29.95R
PLATTSMOUTH    CLEAR     44  26  49 CALM      29.94R
WAHOO          FAIR      34  24  67 N6        29.95R WCI  29
$$




USA.gov is the U.S. government's official web portal to all federal, state and local government web resources and services.